Wind_Speed
11 12 9 7 6 7 6 9 12 14 19 16 15 14 13 14 25 31 17 15 14 16 10 7 7 5 5 3 4 2 5 4 3 4 4 6 5 5 6 8 8 9 11 8 11
12 11 8 7 6 6 7 9 12 13 13 9 10 10 5 3 8 22 24 16 13 9 3 6 2 4 4 4 4 5 4 5 5 1 2 3 8 5 4 10 11 14 18 18 18
12 10 8 7 7 7 8 10 12 11 8 4 8 11 6 1 5 6 24 17 15 5 5 4 4 4 6 3 6 5 4 6 8 6 7 6 20 11 5 14 12 9 12 15 17
13 9 8 8 9 10 10 11 13 10 7 3 7 5 11 2 4 12 21 14 15 5 4 9 5 4 5 6 4 7 8 5 8 11 6 6 9 18 19 7 10 12 11 14 15
12 8 8 9 11 13 13 13 12 10 5 5 9 5 4 7 3 22 9 9 12 16 11 4 6 4 5 4 5 7 5 9 6 12 15 21 19 13 18 13 16 18 21 20 23
10 8 9 11 12 14 14 13 12 12 13 17 18 10 7 12 14 16 8 10 11 15 13 7 4 3 6 3 4 5 9 6 10 11 12 18 13 5 12 12 21 21 20 24 24
9 8 9 11 13 15 15 13 12 11 7 6 4 4 15 5 19 17 13 13 12 14 5 8 3 6 2 4 3 3 3 4 14 13 4 3 20 12 11 16 21 20 18 20 24
9 8 9 12 12 10 10 9 7 4 4 5 6 10 6 13 20 23 9 15 21 15 14 11 12 8 5 1 6 5 4 3 5 11 6 3 5 14 13 18 19 19 18 19 26
8 8 9 10 9 10 8 10 10 8 11 7 7 6 4 10 19 25 16 8 8 8 23 14 9 5 7 3 3 7 1 2 1 10 1 8 9 8 11 16 17 18 19 19 20
7 7 9 13 17 19 25 26 19 2 7 5 17 4 9 7 12 21 11 16 10 5 7 12 7 4 6 8 1 4 3 3 3 5 11 17 15 9 11 16 16 17 18 19 20
5 6 9 12 9 10 2 3 5 8 19 6 2 4 5 17 4 23 22 8 9 9 6 7 11 5 4 4 3 3 2 3 1 4 6 10 11 9 10 16 18 20 20 20 21
3 4 8 10 6 3 3 6 4 8 7 8 4 4 5 7 7 28 28 8 9 6 4 6 6 5 3 7 3 1 1 3 3 3 4 10 10 8 11 13 14 18 20 20 22
3 4 6 8 5 2 8 10 11 6 6 6 4 5 4 8 6 13 13 3 6 9 10 7 4 4 3 5 11 3 2 5 9 3 4 13 5 1 5 11 17 17 16 19 20
4 7 5 5 4 5 5 10 5 2 5 12 9 7 10 2 6 12 13 2 7 3 4 7 4 5 6 6 6 5 2 10 10 3 1 3 2 4 9 13 19 20 21 22 24
4 7 3 4 10 5 8 6 2 1 4 9 7 6 6 8 5 12 13 7 5 5 2 0 6 9 7 4 4 6 17 6 1 3 3 3 3 5 5 19 22 22 21 22 22
5 10 10 8 6 11 8 3 2 6 2 5 5 8 5 8 6 7 9 10 2 5 7 3 3 4 3 3 1 14 5 2 1 1 2 4 4 4 8 16 20 19 23 23 23
8 5 4 5 5 9 5 2 5 6 4 5 4 5 4 7 7 9 6 15 6 5 9 5 3 5 4 5 4 11 7 4 3 4 4 4 3 2 8 15 16 18 23 24 22
16 12 17 13 9 6 1 5 7 2 1 1 3 2 6 7 5 8 3 5 8 6 3 5 4 7 10 4 3 5 5 3 5 6 8 8 2 2 8 16 23 22 22 23 24
8 12 9 10 5 3 5 6 4 1 1 2 1 4 5 4 3 5 6 2 3 5 3 4 2 1 6 7 4 5 7 2 4 2 3 5 1 4 14 26 25 27 28 28 28
2 5 12 7 5 4 6 5 2 1 2 1 3 3 2 7 4 5 3 2 3 3 1 1 3 2 3 3 9 8 3 3 5 7 7 3 5 6 19 25 25 28 30 29 28
2 4 13 6 5 7 4 3 4 3 1 3 2 3 3 2 3 3 2 1 3 4 4 1 2 1 3 7 3 5 4 5 3 1 3 5 6 2 16 21 21 26 28 27 28
4 3 13 5 5 3 3 4 2 2 7 4 4 4 3 2 3 2 2 2 5 1 3 3 3 3 2 1 6 4 3 2 3 3 1 0 6 3 20 20 19 26 26 28 28
3 1 8 3 4 2 1 4 3 3 4 4 3 3 3 3 1 1 3 2 5 3 2 0 2 1 3 2 3 5 3 4 4 2 1 1 8 17 21 20 26 27 28 28 28
3 3 4 6 2 7 6 2 5 3 4 5 3 3 3 3 5 3 1 2 3 3 8 2 3 2 2 1 1 1 3 3 3 1 2 8 19 24 24 26 29 28 29 28 28
4 1 1 1 4 5 5 3 4 4 3 5 4 5 2 3 2 2 1 1 3 6 4 3 3 1 3 4 1 1 2 2 2 2 2 14 18 20 19 24 26 26 28 28 29
5 5 3 2 1 5 4 1 4 4 4 3 6 3 2 4 2 4 3 2 2 4 3 2 2 2 3 3 2 2 2 3 1 2 8 12 18 8 22 20 23 27 27 26 29
5 4 5 4 2 4 1 5 5 8 4 4 7 5 6 2 3 3 5 6 4 3 2 3 2 3 1 2 2 2 2 4 4 4 9 7 9 22 27 25 24 26 23 28 29
Wind_Direction
12 6 24 35 45 55 70 106 121 122 120 100 76 78 88 71 47 46 39 342 340 347 360 6 33 58 62 75 55 115 66 65 30 26 334 353 37 36 70 72 50 35 53 56 64
13 11 35 42 52 57 87 113 130 133 131 94 46 35 21 30 40 38 3 6 357 354 34 75 34 43 54 30 27 65 80 61 351 2 324 28 46 2 52 56 57 54 50 53 52
14 26 47 48 54 72 97 112 128 136 140 96 33 16 15 119 58 332 353 4 4 10 62 78 80 61 50 28 1 34 94 149 38 358 15 40 61 25 23 46 29 69 54 45 49
19 40 50 57 64 82 100 111 118 122 118 59 1 24 59 103 79 328 344 12 23 71 96 47 35 56 68 54 356 100 43 75 48 37 46 46 89 65 62 81 65 65 70 57 49
25 51 60 73 80 87 96 106 110 105 86 39 44 93 76 53 1 335 2 38 44 69 69 89 59 108 81 90 53 75 112 67 104 95 87 72 70 77 52 50 59 58 50 39 31
33 59 76 84 89 95 99 101 98 95 91 96 70 63 84 71 355 353 20 49 44 50 49 48 118 120 94 95 89 116 94 79 37 56 61 77 41 81 26 40 45 38 33 31 28
40 73 90 90 97 101 98 93 104 113 71 48 20 83 62 66 12 23 42 45 49 52 53 29 71 51 81 86 11 114 85 64 21 356 68 167 38 40 23 49 48 38 33 27 20
49 89 100 102 106 97 92 86 102 89 36 42 49 71 87 14 6 29 70 66 60 57 63 60 71 89 47 136 34 46 61 32 19 2 5 122 63 34 39 56 45 35 28 23 19
62 98 110 111 101 98 99 93 102 84 48 47 35 76 18 1 6 7 20 356 360 41 44 47 58 74 14 43 36 16 319 9 53 26 183 64 126 64 49 53 46 32 22 16 8
72 105 120 121 111 107 99 88 73 26 6 30 29 47 12 315 337 359 10 24 32 355 24 26 47 72 29 32 23 317 338 309 286 24 71 96 114 90 61 53 42 25 14 7 358
75 116 136 139 124 149 136 320 25 9 36 79 289 91 319 334 18 5 360 13 22 51 38 18 59 47 28 355 299 256 239 296 24 34 74 99 108 75 54 41 27 17 8 358 351
80 129 151 163 127 110 23 80 125 148 79 30 41 58 2 356 19 357 13 68 42 37 331 41 57 335 271 348 337 260 240 350 313 46 69 127 107 85 52 40 23 10 359 347 344
57 145 155 178 168 53 84 114 118 112 83 13 23 36 356 29 52 339 15 58 77 54 43 83 333 315 7 10 11 8 53 344 300 328 57 128 165 338 4 14 13 8 353 352 344
52 139 129 161 164 118 86 130 115 104 77 338 350 9 359 19 59 22 9 39 40 91 87 71 344 13 21 49 17 331 313 315 294 220 214 185 297 38 353 360 0 359 355 348 348
74 147 155 191 139 111 142 132 95 85 59 332 330 331 15 67 308 2 13 27 68 31 126 329 20 15 21 341 360 274 313 301 263 188 136 163 278 11 340 358 352 353 348 340 333
128 121 113 111 87 125 135 131 57 44 68 349 343 353 24 21 17 317 13 34 56 64 39 52 11 61 285 304 30 306 332 79 78 163 163 123 4 58 21 346 339 345 346 340 336
82 152 118 109 111 136 134 63 42 87 333 338 348 9 85 6 12 18 39 42 39 22 21 348 34 330 24 349 10 15 353 338 331 346 358 13 346 118 18 353 338 335 342 340 333
85 97 82 88 108 130 88 56 74 237 293 332 357 56 66 1 20 5 61 43 36 32 69 29 322 15 339 52 310 22 29 51 312 312 318 345 321 70 21 337 355 343 335 333 333
90 69 51 40 79 75 72 54 158 208 334 5 318 68 17 360 87 64 45 50 25 8 81 12 273 184 58 36 352 353 35 348 280 8 304 324 6 118 348 358 346 338 337 337 333
81 80 24 20 39 64 73 124 121 3 352 343 85 18 58 346 44 45 23 317 344 33 271 178 323 48 6 15 27 72 336 4 24 347 315 357 294 333 354 350 340 338 332 329 327
73 64 1 28 39 50 97 125 124 57 58 51 127 97 72 45 61 54 4 24 14 352 54 60 88 29 53 23 354 6 32 42 116 58 291 315 320 163 345 345 329 328 326 325 325
89 65 355 16 53 38 81 114 140 24 29 47 86 80 87 68 72 110 99 360 354 318 46 8 121 47 100 83 67 69 84 72 96 305 62 222 277 272 342 329 327 325 324 325 325
92 121 9 26 120 89 132 71 77 61 42 40 70 43 54 99 55 82 116 75 19 57 90 130 37 5 172 258 38 56 50 87 93 86 245 317 292 328 325 330 331 328 326 323 324
95 76 354 49 37 117 128 106 113 41 74 65 95 86 90 70 23 149 119 53 25 27 50 86 81 111 205 90 185 19 80 75 83 72 269 265 301 318 328 333 327 327 322 322 325
30 170 249 105 17 94 90 122 118 99 56 39 68 51 71 105 85 107 116 81 67 357 50 71 101 44 75 69 121 127 91 72 136 222 223 309 306 309 323 323 320 320 321 325 327
128 132 34 69 32 82 20 87 130 133 31 26 100 44 24 105 48 200 143 171 86 26 67 352 139 102 70 351 188 126 338 3 199 254 274 296 301 315 316 320 326 325 323 324 329
123 103 99 326 52 83 177 166 160 132 45 39 129 101 59 61 105 90 81 77 94 112 102 63 96 51 10 3 103 58 237 312 309 279 292 303 321 317 325 332 327 316 320 329 329
Height
812 810 808 807 807 806 805 805 805 807 808 809 810 811 810 809 808 805 807 813 807 803 801 799 799 798 798 802 805 809 833 847 848 844 842 835 833 835 841 845 853 859 862 867 865
812 810 809 808 807 806 806 806 807 809 810 811 811 811 810 809 808 806 811 808 805 801 798 796 798 797 804 808 810 818 840 847 846 841 841 838 838 840 841 850 861 867 870 870 868
813 811 809 809 808 807 807 807 808 810 812 812 812 811 809 808 809 813 810 807 803 800 799 798 799 801 812 813 821 826 841 842 848 840 839 843 855 856 853 871 876 874 875 873 870
814 812 811 810 809 808 808 809 810 812 813 813 812 810 807 808 832 816 811 809 805 801 800 800 802 810 821 826 826 836 841 839 848 846 846 853 861 871 871 884 883 880 877 874 871
815 814 813 812 811 810 811 812 813 814 814 814 811 809 809 816 824 818 813 810 807 802 801 803 808 815 827 827 830 840 845 848 850 851 856 859 869 877 885 888 886 883 880 880 880
816 815 815 814 813 813 814 815 815 815 815 815 814 812 812 825 824 818 814 811 809 806 805 804 809 811 824 831 832 840 845 853 856 861 864 870 882 877 895 895 889 889 889 889 887
817 816 816 816 816 816 817 817 817 816 816 816 814 814 815 830 825 819 815 813 812 810 809 811 811 814 824 835 839 841 846 852 860 861 865 867 885 901 902 900 897 896 895 892 889
818 818 818 818 818 818 819 818 818 818 817 816 815 815 826 827 825 819 818 817 816 814 814 816 815 821 832 839 844 851 853 860 870 865 863 859 906 908 907 900 901 899 896 893 892
820 819 819 820 820 820 820 820 819 819 818 817 817 817 833 829 824 825 822 821 819 819 819 819 819 840 843 849 856 864 862 866 866 870 865 863 900 910 908 902 901 902 900 896 891
821 821 821 822 822 822 822 822 821 820 820 819 821 827 835 840 833 830 825 824 823 822 824 831 845 859 858 858 874 873 872 871 870 878 880 886 902 907 907 904 906 905 903 900 895
822 822 823 824 824 824 823 822 824 831 831 844 846 846 844 840 836 832 828 826 829 839 857 857 863 882 885 885 879 877 878 876 875 881 888 901 912 916 914 910 908 905 903 900 896
823 823 823 824 825 825 824 826 831 833 849 846 846 846 845 843 845 838 834 841 852 865 862 869 885 886 885 883 879 878 877 879 879 881 881 904 917 920 917 915 913 910 907 901 893
823 823 824 825 826 827 826 830 831 832 846 850 850 851 852 850 862 858 852 854 863 871 876 882 891 885 883 888 882 884 882 887 888 883 889 899 913 918 919 915 911 910 908 901 894
823 823 824 824 829 828 831 832 833 833 863 870 859 857 856 854 866 863 861 862 869 877 883 891 890 889 890 892 892 891 880 884 885 885 877 888 879 914 919 912 910 906 901 896 889
824 824 824 825 825 829 833 833 833 835 884 873 868 861 863 867 878 867 869 864 878 883 880 897 895 896 894 895 895 890 881 887 884 884 881 887 887 924 921 914 908 906 903 898 891
824 825 825 826 827 831 832 834 835 862 887 880 874 877 873 879 882 881 880 874 883 884 888 898 895 898 900 896 896 889 884 885 889 884 873 893 890 927 924 923 912 908 903 896 886
825 826 826 827 830 832 834 836 865 887 884 888 888 887 890 895 891 896 903 904 913 892 912 905 905 904 903 899 897 897 891 877 867 868 866 899 889 924 925 922 917 913 902 894 888
828 828 829 829 832 834 835 850 881 891 892 888 890 888 898 902 904 907 907 917 922 922 927 917 898 915 913 917 915 915 914 906 907 890 889 906 899 912 926 921 909 905 900 891 882
830 829 833 835 835 835 843 886 891 893 894 891 889 894 902 901 901 909 926 930 931 930 917 924 913 917 921 923 922 918 925 935 929 938 930 921 919 923 922 912 911 902 892 885 876
830 832 838 838 836 836 863 896 898 896 895 894 894 905 901 910 906 913 924 930 930 931 930 933 923 924 923 923 928 928 937 929 939 950 927 927 921 914 925 918 912 904 894 883 874
831 839 841 839 839 850 886 898 897 898 897 896 899 905 911 910 917 924 931 933 934 932 934 936 934 924 929 944 945 937 944 950 956 958 948 947 911 931 926 924 918 907 898 886 873
833 848 842 841 861 892 896 893 892 899 899 900 903 906 910 916 920 922 924 934 936 934 935 940 944 940 951 953 950 953 960 964 965 965 977 981 942 930 925 924 918 908 896 884 873
843 849 845 842 878 901 896 898 900 899 906 903 907 910 914 919 918 926 929 933 935 934 939 938 945 935 943 951 952 957 965 971 980 989 981 977 938 922 925 923 914 906 894 881 871
842 857 856 859 878 884 894 898 902 903 906 910 911 911 915 921 928 930 932 933 935 937 935 938 952 942 934 949 964 961 965 971 976 981 982 966 949 935 928 923 910 901 891 880 868
847 871 871 882 881 885 889 896 900 903 906 910 913 920 916 931 924 929 934 935 936 939 943 945 948 954 964 966 961 962 965 969 985 972 980 956 957 944 938 931 916 904 889 878 866
849 863 875 894 885 886 897 897 904 915 912 910 915 927 924 923 929 926 933 935 938 942 948 952 955 958 966 967 963 964 964 967 967 966 967 961 953 943 936 928 917 902 891 880 867
841 847 853 898 893 891 898 899 901 909 921 922 923 926 933 936 937 941 943 947 947 943 950 954 958 966 955 973 964 964 966 965 966 967 962 960 954 938 922 922 915 902 892 880 868